Flag for U.S.A. Weather past 2 weeks in Charleston, South Carolina, U.S.A.

58 °F

Passing clouds.

Feels Like: 57 °F
Forecast: 54 / 71 °F
Wind: 6 mph from Northeast

Location: Charleston Air Force Base Reporting Station

Current Time: Nov 25, 2015 at 7:32:20 PM

Latest Report: Nov 25, 2015 at 5:56 PM

Visibility: 10 mi

Pressure: 30.54 "Hg

Humidity: 72%

Dew point: 49 °F

Location of CharlestonLocation

Historic Weather in Charleston — Graph


Charleston temperature yesterday

Maximum temperature yesterday: 60 °F (at 1:56 PM)
Minimum temperature yesterday: 32 °F (at 5:56 AM)
Average temperature yesterday: 45 °F

Past Weeks' High & Low Weather Summary

High79 °F (Nov 12, 1:56 PM)97% (Nov 12, 2:56 AM)30.57 "Hg (Nov 12, 2:56 AM)
Low32 °F (Nov 24, 5:56 AM)24% (Nov 14, 11:56 AM)29.87 "Hg (Nov 22, 4:56 AM)
Average58 °F72%30.16 "Hg
* Reported Nov 10 5:56 PM — Nov 25 5:56 PM, Charleston, Weather by CustomWeather, © 2015

Note: Actual official high and low records may vary slightly from our data, if they occured in-between our weather recording intervals... More about our weather records


Charleston weather history for previous 24 hours

Time TempWeatherWind HumidityBarometerVisibility
5:56 PM
Wed, Nov 25
58 °FPassing clouds.6 mph72%30.54 "Hg10 mi
4:56 PM62 °FScattered clouds.9 mph60%30.53 "Hg10 mi
3:56 PM65 °FPartly sunny.13 mph54%30.52 "Hg10 mi
2:56 PM67 °FPartly sunny.12 mph49%30.52 "Hg10 mi
1:56 PM67 °FScattered clouds.10 mph47%30.52 "Hg10 mi
12:56 PM66 °FScattered clouds.10 mph49%30.53 "Hg10 mi
11:56 AM64 °FPassing clouds.10 mph52%30.56 "Hg10 mi
10:56 AM61 °FPassing clouds.12 mph54%30.57 "Hg10 mi
9:56 AM58 °FPassing clouds.12 mph54%30.55 "Hg10 mi
8:56 AM53 °FSunny.12 mph56%30.54 "Hg10 mi
7:56 AM47 °FSunny.9 mph71%30.52 "Hg10 mi
6:56 AM43 °FClear.7 mph76%30.50 "Hg10 mi
5:56 AM43 °FClear.9 mph76%30.48 "Hg10 mi
4:56 AM43 °FClear.9 mph76%30.47 "Hg10 mi
3:56 AM42 °FClear.7 mph76%30.47 "Hg10 mi
2:56 AM43 °FPassing clouds.9 mph74%30.47 "Hg10 mi
1:56 AM42 °FPassing clouds.7 mph79%30.47 "Hg10 mi
12:56 AM39 °FPassing clouds.3 mph86%30.46 "Hg10 mi
11:56 PM
Tue, Nov 24
40 °FPassing clouds.3 mph86%30.47 "Hg10 mi
10:56 PM40 °FPassing clouds.3 mph89%30.47 "Hg10 mi
9:56 PM40 °FPassing clouds.5 mph89%30.46 "Hg10 mi
8:56 PM43 °FPassing clouds.3 mph79%30.45 "Hg10 mi
7:56 PM45 °FPassing clouds.3 mph76%30.44 "Hg10 mi
Weather by CustomWeather, © 2015

See weather overviewHow to use our weather pages